WZZ873 LFMN-EPGD

Flight info

Callsign WZZ873
Flight time N/A
Altitude 34000
Route BASIP DCT ANAKI DCT IDREK DCT LEDKO DCT MOBDO/N0440F350 DCT VERDA DCT NEMAL DCT MEDEL DCT APRAQ DCT EVIKU DCT TOMTI P733 AKAPI DCT ATMIR P733 IRLUN
Aircraft A321/M-SDE1E2E3FGIJ1J4RWXY/LB1

Departure

Time 2026-05-04 19:06
Airport Nice-Côte d'Azur Airport (LFMN)

Arrival

Time N/A
Airport Gdańsk Lech Wałęsa Airport (EPGD)
Time Latitude Longitude Altitude Speed Heading
2026-05-04 18:27 43.66376 7.20856 21 ft 0 kts 351°
2026-05-04 18:48 43.66370 7.20857 21 ft 4 kts 351°
2026-05-04 18:49 43.66346 7.20863 24 ft 3 kts 350°
2026-05-04 18:49 43.66325 7.20874 22 ft 4 kts 300°
2026-05-04 18:49 43.66320 7.20907 21 ft 4 kts 262°
2026-05-04 18:49 43.66322 7.20921 21 ft 1 kts 261°
2026-05-04 18:54 43.66321 7.20920 21 ft 1 kts 261°
2026-05-04 18:54 43.66318 7.20889 21 ft 6 kts 261°
2026-05-04 18:55 43.66310 7.20823 21 ft 6 kts 261°
2026-05-04 18:55 43.66235 7.20765 21 ft 8 kts 172°
2026-05-04 18:55 43.66176 7.20777 21 ft 9 kts 171°
2026-05-04 18:56 43.66134 7.20786 21 ft 10 kts 171°
2026-05-04 18:56 43.66046 7.20807 22 ft 2 kts 170°
2026-05-04 18:56 43.66030 7.20811 21 ft 3 kts 170°
2026-05-04 18:56 43.66015 7.20814 21 ft 3 kts 170°
2026-05-04 18:57 43.65989 7.20820 22 ft 4 kts 170°
2026-05-04 18:57 43.65987 7.20821 22 ft 0 kts 170°
2026-05-04 18:58 43.65974 7.20823 22 ft 5 kts 173°
2026-05-04 18:58 43.65934 7.20820 21 ft 6 kts 190°
2026-05-04 18:58 43.65877 7.20788 21 ft 12 kts 213°
2026-05-04 18:59 43.65804 7.20692 21 ft 16 kts 224°
2026-05-04 18:59 43.65725 7.20583 21 ft 16 kts 225°
2026-05-04 18:59 43.65645 7.20473 21 ft 16 kts 225°
2026-05-04 18:59 43.65569 7.20369 21 ft 15 kts 225°
2026-05-04 19:00 43.65493 7.20265 21 ft 14 kts 225°
2026-05-04 19:00 43.65447 7.20201 21 ft 10 kts 220°
2026-05-04 19:00 43.65368 7.20181 21 ft 14 kts 161°
2026-05-04 19:00 43.65294 7.20267 21 ft 14 kts 136°
2026-05-04 19:01 43.65227 7.20358 21 ft 14 kts 135°
2026-05-04 19:01 43.65163 7.20447 21 ft 12 kts 134°
2026-05-04 19:01 43.65097 7.20504 22 ft 12 kts 166°
2026-05-04 19:01 43.65017 7.20491 23 ft 12 kts 205°
2026-05-04 19:02 43.64958 7.20416 22 ft 12 kts 225°
2026-05-04 19:02 43.64902 7.20338 22 ft 9 kts 225°
2026-05-04 19:02 43.64851 7.20277 21 ft 10 kts 209°
2026-05-04 19:02 43.64792 7.20284 23 ft 0 kts 147°
2026-05-04 19:03 43.64790 7.20286 22 ft 1 kts 141°
2026-05-04 19:03 43.64776 7.20309 23 ft 5 kts 124°
2026-05-04 19:04 43.64771 7.20367 23 ft 6 kts 79°
2026-05-04 19:04 43.64795 7.20415 23 ft 5 kts 46°
2026-05-04 19:04 43.64795 7.20416 23 ft 0 kts 46°
2026-05-04 19:05 43.64833 7.20468 24 ft 34 kts 45°
2026-05-04 19:05 43.65164 7.20925 21 ft 100 kts 44°
2026-05-04 19:05 43.65795 7.21790 29 ft 153 kts 45°
2026-05-04 19:05 43.66615 7.22859 443 ft 164 kts 46°
2026-05-04 19:06 43.67197 7.24173 1057 ft 164 kts 85°
2026-05-04 19:06 43.66965 7.25716 1766 ft 168 kts 116°
2026-05-04 19:06 43.66208 7.27029 2156 ft 188 kts 133°
2026-05-04 19:06 43.65251 7.28397 2424 ft 205 kts 131°
2026-05-04 19:07 43.64259 7.29863 2950 ft 211 kts 129°
2026-05-04 19:07 43.63538 7.31600 3635 ft 209 kts 103°
2026-05-04 19:07 43.63501 7.33597 4328 ft 211 kts 76°
2026-05-04 19:07 43.63974 7.35508 4989 ft 214 kts 71°
2026-05-04 19:08 43.64488 7.37454 5676 ft 217 kts 72°
2026-05-04 19:08 43.65008 7.39435 6321 ft 221 kts 73°
2026-05-04 19:08 43.65535 7.41459 6923 ft 225 kts 73°
2026-05-04 19:08 43.66069 7.43518 7515 ft 230 kts 73°
2026-05-04 19:09 43.66607 7.45593 8092 ft 234 kts 73°
2026-05-04 19:09 43.67163 7.47747 8693 ft 239 kts 74°
2026-05-04 19:09 43.67730 7.49944 9193 ft 250 kts 73°
2026-05-04 19:09 43.68339 7.52274 9377 ft 273 kts 73°
2026-05-04 19:10 43.69039 7.54821 9680 ft 291 kts 66°
2026-05-04 19:10 43.70142 7.57233 10211 ft 301 kts 58°
2026-05-04 19:10 43.71362 7.59705 10388 ft 323 kts 58°
2026-05-04 19:10 43.72669 7.62368 10520 ft 345 kts 58°
2026-05-04 19:11 43.74038 7.65158 10927 ft 355 kts 58°
2026-05-04 19:11 43.75434 7.67997 11502 ft 359 kts 57°
2026-05-04 19:11 43.76850 7.70873 12106 ft 363 kts 57°
2026-05-04 19:11 43.78285 7.73787 12703 ft 367 kts 57°
2026-05-04 19:12 43.79714 7.76693 13295 ft 372 kts 57°
2026-05-04 19:12 43.82658 7.82710 14418 ft 380 kts 57°
2026-05-04 19:12 43.84148 7.85761 14972 ft 383 kts 57°
2026-05-04 19:13 43.85633 7.88801 15507 ft 387 kts 57°
2026-05-04 19:13 43.87150 7.91908 16069 ft 391 kts 57°
2026-05-04 19:13 43.88681 7.95044 16617 ft 394 kts 57°
2026-05-04 19:13 43.90183 7.98254 17147 ft 398 kts 59°
2026-05-04 19:14 43.91605 8.01573 17691 ft 401 kts 62°
2026-05-04 19:14 43.92977 8.04973 18226 ft 405 kts 63°
2026-05-04 19:14 43.94319 8.08395 18709 ft 409 kts 63°
2026-05-04 19:14 43.95687 8.11885 19198 ft 411 kts 63°
2026-05-04 19:15 43.97073 8.15384 19687 ft 414 kts 62°
2026-05-04 19:15 43.98466 8.18852 20159 ft 417 kts 62°
2026-05-04 19:15 43.99899 8.22385 20652 ft 420 kts 61°
2026-05-04 19:15 44.01348 8.25938 21143 ft 422 kts 61°
2026-05-04 19:16 44.02804 8.29505 21630 ft 425 kts 61°
2026-05-04 19:16 44.04265 8.33091 22101 ft 428 kts 61°
2026-05-04 19:16 44.05718 8.36668 22539 ft 430 kts 61°
2026-05-04 19:16 44.07189 8.40303 22987 ft 433 kts 61°
2026-05-04 19:17 44.08672 8.43981 23435 ft 435 kts 61°
2026-05-04 19:17 44.10156 8.47674 23846 ft 438 kts 61°
2026-05-04 19:17 44.11649 8.51393 24184 ft 441 kts 61°
2026-05-04 19:17 44.13147 8.55130 24514 ft 444 kts 61°
2026-05-04 19:18 44.14635 8.58852 24837 ft 446 kts 61°
2026-05-04 19:18 44.16152 8.62649 25164 ft 449 kts 61°
2026-05-04 19:18 44.17678 8.66467 25481 ft 452 kts 61°
2026-05-04 19:18 44.19241 8.70305 25797 ft 455 kts 58°
2026-05-04 19:19 44.21120 8.73870 26104 ft 458 kts 48°
2026-05-04 19:19 44.23346 8.77064 26405 ft 460 kts 44°
2026-05-04 19:19 44.25626 8.80221 26716 ft 463 kts 44°
2026-05-04 19:19 44.27850 8.83327 27016 ft 466 kts 44°
2026-05-04 19:20 44.30149 8.86553 27324 ft 469 kts 44°
2026-05-04 19:20 44.32448 8.89786 27639 ft 471 kts 44°
2026-05-04 19:20 44.34764 8.93052 27943 ft 474 kts 44°
2026-05-04 19:20 44.37091 8.96331 28225 ft 476 kts 44°
2026-05-04 19:21 44.39433 8.99636 28529 ft 479 kts 44°
2026-05-04 19:21 44.41790 9.02960 28822 ft 481 kts 44°
2026-05-04 19:21 44.44158 9.06296 29073 ft 485 kts 44°
2026-05-04 19:21 44.46521 9.09623 29341 ft 487 kts 44°
2026-05-04 19:22 44.48912 9.12996 29643 ft 489 kts 43°
2026-05-04 19:22 44.51314 9.16391 29924 ft 491 kts 43°
2026-05-04 19:22 44.53729 9.19815 30207 ft 494 kts 43°
2026-05-04 19:22 44.56152 9.23261 30445 ft 496 kts 43°
2026-05-04 19:23 44.58550 9.26681 30707 ft 497 kts 43°
2026-05-04 19:23 44.60980 9.30148 31062 ft 496 kts 43°
2026-05-04 19:23 44.63401 9.33603 31398 ft 496 kts 43°
2026-05-04 19:23 44.65824 9.37066 31754 ft 495 kts 43°
2026-05-04 19:24 44.68214 9.40482 32115 ft 494 kts 43°
2026-05-04 19:24 44.70626 9.43930 32475 ft 493 kts 43°
2026-05-04 19:24 44.73027 9.47366 32838 ft 491 kts 43°
2026-05-04 19:24 44.75420 9.50795 33208 ft 490 kts 43°
2026-05-04 19:25 44.77779 9.54176 33566 ft 489 kts 43°
2026-05-04 19:25 44.80157 9.57592 33918 ft 488 kts 43°
2026-05-04 19:25 44.82531 9.61012 34043 ft 485 kts 43°
2026-05-04 19:26 44.87212 9.67778 34052 ft 479 kts 43°
2026-05-04 19:26 44.91867 9.74514 34061 ft 479 kts 43°
2026-05-04 19:27 44.96549 9.81284 34064 ft 489 kts 43°
2026-05-04 19:27 45.01298 9.88188 34067 ft 489 kts 44°
2026-05-04 19:28 45.06047 9.95102 34060 ft 489 kts 44°
2026-05-04 19:28 45.10745 10.02064 34055 ft 489 kts 44°
2026-05-04 19:29 45.15437 10.08966 34069 ft 489 kts 44°
2026-05-04 19:29 45.20181 10.15867 34071 ft 489 kts 44°
2026-05-04 19:30 45.24935 10.22803 34082 ft 489 kts 44°
2026-05-04 19:30 45.29662 10.29771 34084 ft 489 kts 44°
2026-05-04 19:31 45.34340 10.36698 34083 ft 489 kts 44°
2026-05-04 19:31 45.39034 10.43683 34088 ft 488 kts 45°
2026-05-04 19:32 45.43739 10.50686 34081 ft 488 kts 44°
2026-05-04 19:32 45.48434 10.57672 34085 ft 487 kts 45°
2026-05-04 19:33 45.53098 10.64641 34090 ft 487 kts 45°
2026-05-04 19:33 45.57747 10.71616 34092 ft 487 kts 45°
2026-05-04 19:34 45.62422 10.78632 34100 ft 486 kts 45°
2026-05-04 19:34 45.67004 10.85566 34115 ft 486 kts 46°
2026-05-04 19:35 45.71561 10.92646 34128 ft 486 kts 46°
2026-05-04 19:35 45.76126 10.99812 34151 ft 486 kts 46°
2026-05-04 19:36 45.80686 11.06975 34160 ft 486 kts 46°
2026-05-04 19:36 45.85725 11.13382 34169 ft 484 kts 38°
2026-05-04 19:37 45.90909 11.19488 34176 ft 484 kts 38°
2026-05-04 19:37 45.96113 11.25641 34186 ft 484 kts 38°
2026-05-04 19:38 46.01279 11.31766 34190 ft 484 kts 38°
2026-05-04 19:38 46.06475 11.37952 34197 ft 484 kts 38°
2026-05-04 19:39 46.11639 11.44100 34184 ft 484 kts 38°
2026-05-04 19:39 46.16835 11.50302 34170 ft 484 kts 39°
2026-05-04 19:40 46.21988 11.56492 34129 ft 483 kts 38°
2026-05-04 19:40 46.27165 11.62709 34118 ft 483 kts 39°
2026-05-04 19:41 46.32336 11.68930 34113 ft 482 kts 39°
2026-05-04 19:41 46.34913 11.72040 34112 ft 482 kts 39°